Wetterdaten: Dienstag, 11.05.2004
Datum Zeit Temp. A Sch. Temp. A Son. Feuchte A. Luftdruck Regen Wind Richtung Richtung Sonnenschein Helligkeit Taupunkt Windchill
11.05.2004 00:00 8,2 C 8,8 C 91 % 1014 hPa 0,0 l/m 0,0 m/s (0 Bft) SW 235 0,00 min 0 lux 6,8 C 8,2 C
11.05.2004 00:05 7,6 C 8,7 C 92 % 1014 hPa 0,0 l/m 0,1 m/s (0 Bft) SW 235 0,00 min 0 lux 6,4 C 7,6 C
11.05.2004 00:10 7,9 C 8,7 C 92 % 1014 hPa 0,0 l/m 1,5 m/s (1 Bft) SW 235 0,00 min 0 lux 6,7 C 7,9 C
11.05.2004 00:15 7,8 C 8,7 C 92 % 1014 hPa 0,0 l/m 1,6 m/s (1 Bft) W-SW22.5 245 0,00 min 0 lux 6,6 C 7,8 C
11.05.2004 00:20 7,7 C 8,5 C 92 % 1014 hPa 0,0 l/m 1,8 m/s (1 Bft) W-SW22.5 245 0,00 min 0 lux 6,5 C 7,6 C
11.05.2004 00:25 7,5 C 8,4 C 92 % 1014 hPa 0,0 l/m 0,0 m/s (0 Bft) SW 230 0,00 min 0 lux 6,3 C 7,5 C
11.05.2004 00:30 7,2 C 8,4 C 92 % 1014 hPa 0,0 l/m 0,0 m/s (0 Bft) SW 230 0,00 min 0 lux 6,0 C 7,2 C
11.05.2004 00:35 7,5 C 8,3 C 92 % 1014 hPa 0,0 l/m 1,1 m/s (0 Bft) SW 230 0,00 min 0 lux 6,3 C 7,5 C
11.05.2004 00:40 7,5 C 8,2 C 92 % 1014 hPa 0,0 l/m 1,6 m/s (1 Bft) W-SW22.5 245 0,00 min 0 lux 6,3 C 7,5 C
11.05.2004 00:45 7,5 C 8,2 C 92 % 1014 hPa 0,0 l/m 1,7 m/s (1 Bft) SW22.5 235 0,00 min 0 lux 6,3 C 7,5 C
11.05.2004 00:50 7,4 C 8,1 C 93 % 1014 hPa 0,0 l/m 1,8 m/s (1 Bft) W-SW22.5 240 0,00 min 0 lux 6,3 C 7,3 C
11.05.2004 00:55 7,5 C 8,0 C 93 % 1014 hPa 0,0 l/m 1,3 m/s (1 Bft) W-SW22.5 240 0,00 min 0 lux 6,4 C 7,5 C
11.05.2004 01:00 7,1 C 7,9 C 93 % 1014 hPa 0,0 l/m 0,6 m/s (0 Bft) W-SW 240 0,00 min 0 lux 6,0 C 7,1 C
11.05.2004 01:05 7,1 C 7,9 C 93 % 1014 hPa 0,0 l/m 0,0 m/s (0 Bft) W-SW 240 0,00 min 0 lux 6,0 C 7,1 C
11.05.2004 01:10 7,3 C 7,8 C 93 % 1014 hPa 0,0 l/m 1,3 m/s (1 Bft) SW 230 0,00 min 0 lux 6,2 C 7,3 C
11.05.2004 01:15 7,3 C 7,8 C 93 % 1014 hPa 0,0 l/m 1,6 m/s (1 Bft) W-SW 240 0,00 min 0 lux 6,2 C 7,3 C
11.05.2004 01:20 7,3 C 7,8 C 93 % 1014 hPa 0,0 l/m 1,3 m/s (1 Bft) W-SW 245 0,00 min 0 lux 6,2 C 7,3 C
11.05.2004 01:25 7,2 C 7,7 C 93 % 1014 hPa 0,0 l/m 1,0 m/s (0 Bft) W-SW22.5 245 0,00 min 0 lux 6,1 C 7,2 C
11.05.2004 01:30 6,8 C 7,6 C 94 % 1014 hPa 0,0 l/m 0,0 m/s (0 Bft) W-SW 240 0,00 min 0 lux 5,9 C 6,8 C
11.05.2004 01:35 6,7 C 7,6 C 94 % 1014 hPa 0,0 l/m 0,0 m/s (0 Bft) W-SW 240 0,00 min 0 lux 5,8 C 6,7 C
11.05.2004 01:40 6,7 C 7,5 C 94 % 1014 hPa 0,0 l/m 0,0 m/s (0 Bft) W-SW 240 0,00 min 0 lux 5,8 C 6,7 C
11.05.2004 01:45 6,4 C 7,4 C 94 % 1014 hPa 0,0 l/m 0,0 m/s (0 Bft) W-SW 240 0,00 min 0 lux 5,5 C 6,4 C
11.05.2004 01:50 6,1 C 7,3 C 94 % 1014 hPa 0,0 l/m 0,0 m/s (0 Bft) W-SW 240 0,00 min 0 lux 5,2 C 6,1 C
11.05.2004 01:55 6,0 C 7,2 C 94 % 1014 hPa 0,0 l/m 0,0 m/s (0 Bft) W-SW 240 0,00 min 0 lux 5,1 C 6,0 C
11.05.2004 02:00 5,9 C 7,1 C 94 % 1014 hPa 0,0 l/m 0,0 m/s (0 Bft) W-SW 240 0,00 min 0 lux 5,0 C 5,9 C
11.05.2004 02:05 5,7 C 7,0 C 94 % 1014 hPa 0,0 l/m 0,0 m/s (0 Bft) W-SW 240 0,00 min 0 lux 4,8 C 5,7 C
11.05.2004 02:10 5,7 C 7,0 C 94 % 1014 hPa 0,0 l/m 0,0 m/s (0 Bft) W-SW 240 0,00 min 0 lux 4,8 C 5,7 C
11.05.2004 02:15 5,4 C 6,8 C 94 % 1014 hPa 0,0 l/m 0,0 m/s (0 Bft) W-SW 240 0,00 min 0 lux 4,5 C 5,4 C
11.05.2004 02:20 4,9 C 6,7 C 95 % 1014 hPa 0,0 l/m 0,0 m/s (0 Bft) W-SW 240 0,00 min 0 lux 4,2 C 4,9 C
11.05.2004 02:25 5,4 C 6,6 C 94 % 1014 hPa 0,0 l/m 0,0 m/s (0 Bft) W-SW 240 0,00 min 0 lux 4,5 C 5,4 C
11.05.2004 02:30 5,4 C 6,6 C 94 % 1014 hPa 0,0 l/m 0,0 m/s (0 Bft) W-SW 240 0,00 min 0 lux 4,5 C 5,4 C
11.05.2004 02:35 5,7 C 6,6 C 94 % 1014 hPa 0,0 l/m 0,0 m/s (0 Bft) W-SW 240 0,00 min 0 lux 4,8 C 5,7 C
11.05.2004 02:40 5,7 C 6,6 C 94 % 1014 hPa 0,0 l/m 0,0 m/s (0 Bft) W-SW 240 0,00 min 0 lux 4,8 C 5,7 C
11.05.2004 02:45 5,8 C 6,6 C 94 % 1014 hPa 0,0 l/m 0,0 m/s (0 Bft) W-SW 240 0,00 min 0 lux 4,9 C 5,8 C
11.05.2004 02:50 5,9 C 6,7 C 94 % 1014 hPa 0,0 l/m 0,0 m/s (0 Bft) W-SW 240 0,00 min 0 lux 5,0 C 5,9 C
11.05.2004 02:55 5,9 C 6,7 C 94 % 1014 hPa 0,0 l/m 0,0 m/s (0 Bft) W-SW 240 0,00 min 0 lux 5,0 C 5,9 C
11.05.2004 03:00 5,9 C 6,7 C 94 % 1014 hPa 0,0 l/m 0,0 m/s (0 Bft) W-SW 240 0,00 min 0 lux 5,0 C 5,9 C
11.05.2004 03:05 6,0 C 6,8 C 94 % 1014 hPa 0,0 l/m 0,0 m/s (0 Bft) W-SW 240 0,00 min 0 lux 5,1 C 6,0 C
11.05.2004 03:10 5,9 C 6,8 C 94 % 1014 hPa 0,0 l/m 0,0 m/s (0 Bft) W-SW 240 0,00 min 0 lux 5,0 C 5,9 C
11.05.2004 03:15 5,9 C 6,7 C 94 % 1014 hPa 0,0 l/m 0,0 m/s (0 Bft) W-SW 240 0,00 min 0 lux 5,0 C 5,9 C
11.05.2004 03:20 5,8 C 6,7 C 94 % 1014 hPa 0,0 l/m 0,0 m/s (0 Bft) W-SW 240 0,00 min 0 lux 4,9 C 5,8 C
11.05.2004 03:25 5,8 C 6,7 C 94 % 1014 hPa 0,0 l/m 0,0 m/s (0 Bft) W-SW 240 0,00 min 0 lux 4,9 C 5,8 C
11.05.2004 03:30 5,7 C 6,6 C 94 % 1014 hPa 0,0 l/m 0,0 m/s (0 Bft) W-SW 240 0,00 min 0 lux 4,8 C 5,7 C
11.05.2004 03:35 5,7 C 6,6 C 94 % 1014 hPa 0,0 l/m 0,0 m/s (0 Bft) W-SW 240 0,00 min 0 lux 4,8 C 5,7 C
11.05.2004 03:40 5,6 C 6,6 C 94 % 1014 hPa 0,0 l/m 0,0 m/s (0 Bft) W-SW 240 0,00 min 0 lux 4,7 C 5,6 C
11.05.2004 03:45 5,6 C 6,6 C 94 % 1014 hPa 0,0 l/m 0,0 m/s (0 Bft) W-SW 240 0,00 min 0 lux 4,7 C 5,6 C
11.05.2004 03:50 5,6 C 6,6 C 94 % 1014 hPa 0,0 l/m 0,0 m/s (0 Bft) W-SW 240 0,00 min 0 lux 4,7 C 5,6 C
11.05.2004 03:55 5,5 C 6,5 C 94 % 1014 hPa 0,0 l/m 0,0 m/s (0 Bft) W-SW 240 0,00 min 0 lux 4,6 C 5,5 C
11.05.2004 04:00 5,4 C 6,5 C 94 % 1014 hPa 0,0 l/m 0,0 m/s (0 Bft) W-SW 240 0,00 min 0 lux 4,5 C 5,4 C
11.05.2004 04:05 5,4 C 6,6 C 94 % 1014 hPa 0,0 l/m 0,0 m/s (0 Bft) W-SW 240 0,00 min 0 lux 4,5 C 5,4 C
11.05.2004 04:10 5,4 C 6,5 C 94 % 1014 hPa 0,0 l/m 0,0 m/s (0 Bft) W-SW 240 0,00 min 0 lux 4,5 C 5,4 C
11.05.2004 04:15 5,5 C 6,5 C 94 % 1014 hPa 0,0 l/m 0,0 m/s (0 Bft) W-SW 240 0,00 min 0 lux 4,6 C 5,5 C
11.05.2004 04:20 5,4 C 6,5 C 94 % 1014 hPa 0,0 l/m 0,0 m/s (0 Bft) W-SW 240 0,00 min 0 lux 4,5 C 5,4 C
11.05.2004 04:25 5,5 C 6,5 C 94 % 1014 hPa 0,0 l/m 0,0 m/s (0 Bft) W-SW 240 0,00 min 0 lux 4,6 C 5,5 C
11.05.2004 04:30 5,5 C 6,5 C 94 % 1014 hPa 0,0 l/m 0,0 m/s (0 Bft) W-SW 240 0,00 min 0 lux 4,6 C 5,5 C
11.05.2004 04:35 5,5 C 6,5 C 95 % 1014 hPa 0,0 l/m 0,0 m/s (0 Bft) W-SW 240 0,00 min 0 lux 4,8 C 5,5 C
11.05.2004 04:40 5,6 C 6,5 C 95 % 1014 hPa 0,0 l/m 0,0 m/s (0 Bft) W-SW 240 0,00 min 0 lux 4,9 C 5,6 C
11.05.2004 04:45 5,5 C 6,5 C 95 % 1014 hPa 0,0 l/m 0,0 m/s (0 Bft) W-SW 240 0,00 min 0 lux 4,8 C 5,5 C
11.05.2004 04:50 5,6 C 6,5 C 95 % 1014 hPa 0,0 l/m 0,0 m/s (0 Bft) W-SW 240 0,00 min 0 lux 4,9 C 5,6 C
11.05.2004 04:55 5,2 C 6,5 C 95 % 1014 hPa 0,0 l/m 0,0 m/s (0 Bft) W-SW 240 0,00 min 0 lux 4,5 C 5,2 C
11.05.2004 05:00 5,6 C 6,5 C 95 % 1014 hPa 0,0 l/m 0,0 m/s (0 Bft) W-SW 240 0,00 min 0 lux 4,9 C 5,6 C
11.05.2004 05:05 5,5 C 6,4 C 95 % 1014 hPa 0,0 l/m 0,0 m/s (0 Bft) W-SW 240 0,00 min 0 lux 4,8 C 5,5 C
11.05.2004 05:10 5,4 C 6,4 C 95 % 1014 hPa 0,0 l/m 0,0 m/s (0 Bft) W-SW 240 0,00 min 0 lux 4,7 C 5,4 C
11.05.2004 05:15 5,3 C 6,4 C 95 % 1014 hPa 0,0 l/m 0,0 m/s (0 Bft) W-SW 240 0,00 min 0 lux 4,6 C 5,3 C
11.05.2004 05:20 5,3 C 6,4 C 95 % 1015 hPa 0,0 l/m 0,0 m/s (0 Bft) W-SW 240 0,00 min 0 lux 4,6 C 5,3 C
11.05.2004 05:25 5,0 C 6,3 C 95 % 1015 hPa 0,0 l/m 0,0 m/s (0 Bft) W-SW 240 0,00 min 0 lux 4,3 C 5,0 C
11.05.2004 05:30 5,0 C 6,3 C 95 % 1014 hPa 0,0 l/m 0,0 m/s (0 Bft) W-SW 240 0,00 min 63 lux 4,3 C 5,0 C
11.05.2004 05:35 5,4 C 6,3 C 95 % 1014 hPa 0,0 l/m 0,0 m/s (0 Bft) W-SW 240 0,00 min 103 lux 4,7 C 5,4 C
11.05.2004 05:40 5,4 C 6,3 C 95 % 1015 hPa 0,0 l/m 0,0 m/s (0 Bft) W-SW 240 0,00 min 130 lux 4,7 C 5,4 C
11.05.2004 05:45 5,4 C 6,3 C 95 % 1015 hPa 0,0 l/m 0,0 m/s (0 Bft) W-SW 240 0,00 min 196 lux 4,7 C 5,4 C
11.05.2004 05:50 5,3 C 6,3 C 95 % 1015 hPa 0,0 l/m 0,0 m/s (0 Bft) W-SW 240 0,00 min 314 lux 4,6 C 5,3 C
11.05.2004 05:55 5,4 C 6,3 C 95 % 1015 hPa 0,0 l/m 0,0 m/s (0 Bft) W-SW 240 0,00 min 497 lux 4,7 C 5,4 C
11.05.2004 06:00 5,3 C 6,3 C 95 % 1015 hPa 0,0 l/m 0,0 m/s (0 Bft) W-SW 240 0,00 min 702 lux 4,6 C 5,3 C
11.05.2004 06:05 5,2 C 6,3 C 95 % 1015 hPa 0,0 l/m 0,0 m/s (0 Bft) W-SW 240 0,00 min 962 lux 4,5 C 5,2 C
11.05.2004 06:10 5,3 C 6,3 C 95 % 1015 hPa 0,0 l/m 0,0 m/s (0 Bft) W-SW 240 0,00 min 1,30 klux 4,6 C 5,3 C
11.05.2004 06:15 5,3 C 6,3 C 95 % 1015 hPa 0,0 l/m 0,0 m/s (0 Bft) W-SW 240 0,00 min 1,63 klux 4,6 C 5,3 C
11.05.2004 06:20 5,2 C 6,2 C 95 % 1015 hPa 0,0 l/m 0,0 m/s (0 Bft) W-SW 240 0,00 min 2,00 klux 4,5 C 5,2 C
11.05.2004 06:25 5,3 C 6,3 C 95 % 1015 hPa 0,0 l/m 0,0 m/s (0 Bft) W-SW 240 0,00 min 2,42 klux 4,6 C 5,3 C
11.05.2004 06:30 5,3 C 6,2 C 95 % 1015 hPa 0,0 l/m 0,0 m/s (0 Bft) W-SW 240 0,00 min 3,50 klux 4,6 C 5,3 C
11.05.2004 06:35 5,5 C 6,3 C 95 % 1015 hPa 0,4 l/m 0,0 m/s (0 Bft) W-SW 240 0,00 min 3,52 klux 4,8 C 5,5 C
11.05.2004 06:40 5,7 C 6,3 C 95 % 1015 hPa 0,0 l/m 0,0 m/s (0 Bft) W-SW 240 0,00 min 3,90 klux 5,0 C 5,7 C
11.05.2004 06:45 5,8 C 6,4 C 95 % 1015 hPa 0,0 l/m 0,0 m/s (0 Bft) W-SW 240 0,00 min 4,20 klux 5,1 C 5,8 C
11.05.2004 06:50 5,8 C 6,5 C 95 % 1015 hPa 0,0 l/m 0,0 m/s (0 Bft) W-SW 240 0,00 min 4,66 klux 5,1 C 5,8 C
11.05.2004 06:55 5,9 C 6,5 C 95 % 1015 hPa 0,0 l/m 0,0 m/s (0 Bft) W-SW 240 0,00 min 5,92 klux 5,2 C 5,9 C
11.05.2004 07:00 6,1 C 6,5 C 95 % 1015 hPa 0,0 l/m 0,0 m/s (0 Bft) W-SW 240 0,00 min 7,74 klux 5,4 C 6,1 C
11.05.2004 07:05 6,2 C 6,6 C 95 % 1015 hPa 0,0 l/m 0,0 m/s (0 Bft) W-SW 240 0,00 min 7,46 klux 5,5 C 6,2 C
11.05.2004 07:10 6,2 C 6,7 C 95 % 1015 hPa 0,0 l/m 0,0 m/s (0 Bft) W-SW 240 0,00 min 7,43 klux 5,5 C 6,2 C
11.05.2004 07:15 6,3 C 6,7 C 95 % 1015 hPa 0,0 l/m 0,0 m/s (0 Bft) W-SW 240 0,00 min 8,07 klux 5,6 C 6,3 C
11.05.2004 07:20 6,3 C 6,8 C 94 % 1015 hPa 0,0 l/m 0,0 m/s (0 Bft) W-SW 240 0,00 min 8,15 klux 5,4 C 6,3 C
11.05.2004 07:25 6,3 C 6,9 C 94 % 1015 hPa 0,0 l/m 0,0 m/s (0 Bft) W-SW 240 0,00 min 7,94 klux 5,4 C 6,3 C
11.05.2004 07:30 6,4 C 6,9 C 94 % 1015 hPa 0,0 l/m 0,0 m/s (0 Bft) W-SW 240 0,00 min 9,3 klux 5,5 C 6,4 C
11.05.2004 07:35 6,6 C 7,1 C 94 % 1015 hPa 0,0 l/m 0,0 m/s (0 Bft) W-SW 240 0,00 min 9,7 klux 5,7 C 6,6 C
11.05.2004 07:40 7,0 C 7,3 C 94 % 1015 hPa 0,0 l/m 0,0 m/s (0 Bft) W-SW 240 0,00 min 10,1 klux 6,1 C 7,0 C
11.05.2004 07:45 7,2 C 7,4 C 94 % 1015 hPa 0,0 l/m 0,0 m/s (0 Bft) W-SW 240 0,00 min 11,0 klux 6,3 C 7,2 C
11.05.2004 07:50 7,0 C 7,5 C 94 % 1015 hPa 0,0 l/m 0,1 m/s (0 Bft) W-SW 240 0,00 min 12,5 klux 6,1 C 7,0 C
11.05.2004 07:55 7,4 C 7,7 C 93 % 1015 hPa 0,0 l/m 0,0 m/s (0 Bft) W-SW 240 0,00 min 10,7 klux 6,3 C 7,4 C
11.05.2004 08:00 7,6 C 7,9 C 93 % 1015 hPa 0,0 l/m 0,0 m/s (0 Bft) W-SW 240 0,00 min 11,9 klux 6,5 C 7,6 C
11.05.2004 08:05 7,9 C 8,0 C 93 % 1015 hPa 0,0 l/m 0,0 m/s (0 Bft) W-SW 240 0,00 min 13,6 klux 6,8 C 7,9 C
11.05.2004 08:10 8,5 C 8,2 C 92 % 1015 hPa 0,0 l/m 1,2 m/s (1 Bft) W-SW22.5 255 0,00 min 14,0 klux 7,3 C 8,5 C
11.05.2004 08:15 8,5 C 8,5 C 92 % 1015 hPa 0,0 l/m 1,8 m/s (1 Bft) W-SW22.5 240 0,00 min 19,0 klux 7,3 C 8,4 C
11.05.2004 08:20 8,8 C 8,8 C 91 % 1015 hPa 0,0 l/m 1,8 m/s (1 Bft) W-SW22.5 240 0,00 min 18,9 klux 7,4 C 8,8 C
11.05.2004 08:25 9,1 C 8,9 C 90 % 1015 hPa 0,0 l/m 1,8 m/s (1 Bft) W-SW22.5 240 0,00 min 22,1 klux 7,5 C 9,1 C
11.05.2004 08:30 9,7 C 9,3 C 90 % 1015 hPa 0,0 l/m 2,2 m/s (1 Bft) SW22.5 235 0,00 min 21,7 klux 8,1 C 8,7 C
11.05.2004 08:35 9,9 C 9,6 C 90 % 1015 hPa 0,0 l/m 2,6 m/s (1 Bft) SW22.5 230 0,00 min 19,6 klux 8,3 C 7,9 C
11.05.2004 08:40 10,2 C 9,7 C 88 % 1015 hPa 0,0 l/m 3,1 m/s (1 Bft) W-SW22.5 245 0,00 min 21,7 klux 8,3 C 7,3 C
11.05.2004 08:45 10,5 C 9,9 C 88 % 1015 hPa 0,0 l/m 4,3 m/s (1 Bft) W45 260 0,00 min 24,4 klux 8,6 C 5,5 C
11.05.2004 08:50 10,8 C 10,2 C 87 % 1015 hPa 0,0 l/m 4,3 m/s (1 Bft) W45 270 0,00 min 30,2 klux 8,7 C 5,9 C
11.05.2004 08:55 11,5 C 10,4 C 84 % 1015 hPa 0,0 l/m 4,6 m/s (1 Bft) W45 275 0,00 min 30,5 klux 8,9 C 6,3 C
11.05.2004 09:00 11,7 C 10,7 C 83 % 1015 hPa 0,0 l/m 6,2 m/s (2 Bft) W45 280 5,00 min 38,1 klux 8,9 C 4,8 C
11.05.2004 09:05 12,2 C 11,0 C 81 % 1015 hPa 0,0 l/m 3,1 m/s (1 Bft) W45 265 5,00 min 42,2 klux 9,0 C 9,4 C
11.05.2004 09:10 12,4 C 11,2 C 78 % 1015 hPa 0,0 l/m 2,9 m/s (1 Bft) W-SW45 245 0,00 min 39,4 klux 8,7 C 9,9 C
11.05.2004 09:15 12,7 C 11,4 C 78 % 1015 hPa 0,0 l/m 3,9 m/s (1 Bft) W45 270 5,00 min 41,0 klux 9,0 C 8,7 C
11.05.2004 09:20 12,7 C 11,7 C 76 % 1015 hPa 0,0 l/m 5,4 m/s (1 Bft) W45 280 5,00 min 42,4 klux 8,6 C 7,0 C
11.05.2004 09:25 12,9 C 11,8 C 75 % 1015 hPa 0,0 l/m 5,1 m/s (1 Bft) W-NW45 285 5,00 min 50,2 klux 8,6 C 7,5 C
11.05.2004 09:30 12,5 C 12,1 C 75 % 1015 hPa 0,0 l/m 6,0 m/s (2 Bft) W-NW22.5 285 5,00 min 48,6 klux 8,2 C 6,1 C
11.05.2004 09:35 13,0 C 12,3 C 74 % 1015 hPa 0,0 l/m 7,3 m/s (2 Bft) W67.5 275 5,00 min 52,3 klux 8,5 C 5,6 C
11.05.2004 09:40 13,2 C 12,5 C 73 % 1015 hPa 0,0 l/m 7,2 m/s (2 Bft) W-NW45 290 5,00 min 62,5 klux 8,5 C 6,0 C
11.05.2004 09:45 13,4 C 12,8 C 73 % 1015 hPa 0,0 l/m 8,5 m/s (2 Bft) W-NW45 285 5,00 min 64,3 klux 8,7 C 5,3 C
11.05.2004 09:50 13,6 C 12,9 C 72 % 1015 hPa 0,0 l/m 5,7 m/s (1 Bft) W45 270 5,00 min 55,4 klux 8,6 C 7,8 C
11.05.2004 09:55 13,7 C 13,1 C 72 % 1015 hPa 0,0 l/m 5,1 m/s (1 Bft) W-SW45 255 5,00 min 56,7 klux 8,7 C 8,5 C
11.05.2004 10:00 14,0 C 13,4 C 71 % 1015 hPa 0,0 l/m 5,4 m/s (1 Bft) W45 270 5,00 min 61,3 klux 8,8 C 8,6 C
11.05.2004 10:05 14,3 C 13,6 C 71 % 1015 hPa 0,0 l/m 4,4 m/s (1 Bft) W-SW22.5 250 5,00 min 57,9 klux 9,1 C 10,0 C
11.05.2004 10:10 14,1 C 14,1 C 69 % 1015 hPa 0,0 l/m 4,7 m/s (1 Bft) W-SW 245 5,00 min 61,1 klux 8,5 C 9,5 C
11.05.2004 10:15 14,8 C 14,6 C 69 % 1015 hPa 0,0 l/m 2,3 m/s (1 Bft) W22.5 260 0,00 min 47,2 klux 9,2 C 13,8 C
11.05.2004 10:20 14,8 C 14,8 C 69 % 1016 hPa 0,0 l/m 3,6 m/s (1 Bft) W67.5 260 5,00 min 59,4 klux 9,2 C 11,7 C
11.05.2004 10:25 15,0 C 15,0 C 68 % 1016 hPa 0,0 l/m 3,8 m/s (1 Bft) W22.5 265 0,00 min 43,9 klux 9,1 C 11,7 C
11.05.2004 10:30 15,0 C 15,4 C 67 % 1016 hPa 0,0 l/m 3,4 m/s (1 Bft) W-SW45 245 5,00 min 70,8 klux 8,9 C 12,2 C
11.05.2004 10:35 15,4 C 15,9 C 67 % 1016 hPa 0,0 l/m 4,1 m/s (1 Bft) W-SW45 245 5,00 min 67,8 klux 9,3 C 11,8 C
11.05.2004 10:40 15,5 C 16,2 C 67 % 1016 hPa 0,0 l/m 2,9 m/s (1 Bft) W-SW45 240 5,00 min 67,6 klux 9,4 C 13,5 C
11.05.2004 10:45 15,8 C 16,7 C 65 % 1016 hPa 0,0 l/m 2,8 m/s (1 Bft) SW45 230 5,00 min 74,1 klux 9,2 C 13,9 C
11.05.2004 10:50 15,6 C 16,8 C 65 % 1016 hPa 0,0 l/m 2,2 m/s (1 Bft) SW45 225 0,00 min 35,9 klux 9,0 C 14,8 C
11.05.2004 10:55 15,6 C 16,7 C 65 % 1016 hPa 0,0 l/m 1,7 m/s (1 Bft) W-SW22.5 245 0,00 min 40,4 klux 9,0 C 15,6 C
11.05.2004 11:00 15,9 C 16,7 C 64 % 1016 hPa 0,0 l/m 3,9 m/s (1 Bft) W45 260 0,00 min 51,0 klux 9,1 C 12,5 C
11.05.2004 11:05 15,5 C 16,8 C 62 % 1016 hPa 0,0 l/m 4,7 m/s (1 Bft) W-SW45 250 0,00 min 44,2 klux 8,3 C 11,2 C
11.05.2004 11:10 16,0 C 16,8 C 61 % 1016 hPa 0,0 l/m 4,7 m/s (1 Bft) W-SW45 240 5,00 min 74,4 klux 8,5 C 11,8 C
11.05.2004 11:15 16,5 C 17,5 C 60 % 1016 hPa 0,0 l/m 3,8 m/s (1 Bft) W45 260 5,00 min 87,6 klux 8,7 C 13,4 C
11.05.2004 11:20 16,8 C 18,3 C 58 % 1016 hPa 0,0 l/m 6,5 m/s (2 Bft) W-SW22.5 255 5,00 min 87,3 klux 8,5 C 11,4 C
11.05.2004 11:25 17,2 C 18,9 C 57 % 1016 hPa 0,0 l/m 5,0 m/s (1 Bft) SW22.5 230 5,00 min 100 klux 8,6 C 13,1 C
11.05.2004 11:30 17,3 C 19,1 C 56 % 1016 hPa 0,0 l/m 4,3 m/s (1 Bft) W45 275 5,00 min 90,7 klux 8,4 C 13,8 C
11.05.2004 11:35 16,6 C 19,2 C 56 % 1016 hPa 0,0 l/m 5,2 m/s (1 Bft) W67.5 260 0,00 min 57,7 klux 7,8 C 12,1 C
11.05.2004 11:40 16,6 C 18,9 C 56 % 1016 hPa 0,0 l/m 4,9 m/s (1 Bft) W-SW45 255 0,00 min 41,9 klux 7,8 C 12,4 C
11.05.2004 11:45 16,6 C 18,8 C 58 % 1016 hPa 0,0 l/m 5,6 m/s (1 Bft) W45 260 0,00 min 46,2 klux 8,3 C 11,8 C
11.05.2004 11:50 16,3 C 18,5 C 59 % 1016 hPa 0,0 l/m 5,4 m/s (1 Bft) W-SW45 255 0,00 min 46,5 klux 8,3 C 11,6 C
11.05.2004 11:55 16,1 C 18,2 C 58 % 1016 hPa 0,0 l/m 5,3 m/s (1 Bft) W-NW67.5 285 0,00 min 46,4 klux 7,8 C 11,4 C
11.05.2004 12:00 15,9 C 17,9 C 59 % 1016 hPa 0,0 l/m 4,8 m/s (1 Bft) W45 275 0,00 min 38,6 klux 7,9 C 11,7 C
11.05.2004 12:05 15,7 C 17,8 C 58 % 1016 hPa 0,0 l/m 5,9 m/s (2 Bft) W45 260 0,00 min 63,1 klux 7,5 C 10,4 C
11.05.2004 12:10 16,4 C 18,1 C 59 % 1016 hPa 0,0 l/m 5,3 m/s (1 Bft) W45 265 5,00 min 78,5 klux 8,4 C 11,7 C
11.05.2004 12:15 16,7 C 19,1 C 58 % 1016 hPa 0,0 l/m 2,3 m/s (1 Bft) W-SW45 255 5,00 min 100 klux 8,4 C 15,8 C
11.05.2004 12:20 17,6 C 19,4 C 55 % 1016 hPa 0,0 l/m 3,6 m/s (1 Bft) SW67.5 225 5,00 min 95,8 klux 8,5 C 14,9 C
11.05.2004 12:25 17,9 C 20,0 C 55 % 1016 hPa 0,0 l/m 4,2 m/s (1 Bft) W-SW45 245 5,00 min 110 klux 8,7 C 14,7 C
11.05.2004 12:30 17,8 C 20,6 C 54 % 1016 hPa 0,0 l/m 4,9 m/s (1 Bft) SW67.5 225 5,00 min 102 klux 8,4 C 13,9 C
11.05.2004 12:35 17,5 C 20,6 C 55 % 1016 hPa 0,0 l/m 4,3 m/s (1 Bft) W-SW22.5 245 5,00 min 96,0 klux 8,4 C 14,1 C
11.05.2004 12:40 17,5 C 20,7 C 55 % 1016 hPa 0,0 l/m 3,7 m/s (1 Bft) SW45 235 5,00 min 78,2 klux 8,4 C 14,7 C
11.05.2004 12:45 17,9 C 21,3 C 55 % 1016 hPa 0,0 l/m 3,4 m/s (1 Bft) S-SW67.5 200 5,00 min 101 klux 8,7 C 15,6 C
11.05.2004 12:50 18,6 C 22,1 C 53 % 1016 hPa 0,0 l/m 2,9 m/s (1 Bft) S-SW67.5 195 5,00 min 103 klux 8,8 C 17,0 C
11.05.2004 12:55 18,0 C 22,5 C 52 % 1016 hPa 0,0 l/m 2,9 m/s (1 Bft) S-SW67.5 195 5,00 min 99,0 klux 8,0 C 16,3 C
11.05.2004 13:00 18,2 C 22,7 C 52 % 1016 hPa 0,0 l/m 3,4 m/s (1 Bft) W-SW67.5 240 5,00 min 73,5 klux 8,2 C 15,9 C
11.05.2004 13:05 18,7 C 22,3 C 52 % 1016 hPa 0,0 l/m 3,9 m/s (1 Bft) SW45 235 5,00 min 87,1 klux 8,6 C 15,9 C
11.05.2004 13:10 18,6 C 22,5 C 52 % 1016 hPa 0,0 l/m 4,2 m/s (1 Bft) SW45 235 5,00 min 101 klux 8,5 C 15,6 C
11.05.2004 13:15 18,0 C 22,0 C 50 % 1016 hPa 0,0 l/m 6,6 m/s (2 Bft) W-SW22.5 255 0,00 min 45,4 klux 7,4 C 12,9 C
11.05.2004 13:20 18,4 C 22,2 C 50 % 1016 hPa 0,0 l/m 5,1 m/s (1 Bft) W-SW45 255 5,00 min 100 klux 7,8 C 14,5 C
11.05.2004 13:25 19,0 C 22,8 C 48 % 1016 hPa 0,0 l/m 5,0 m/s (1 Bft) W-SW45 250 5,00 min 105 klux 7,7 C 15,3 C
11.05.2004 13:30 18,9 C 23,1 C 48 % 1016 hPa 0,0 l/m 5,0 m/s (1 Bft) W-SW45 240 5,00 min 107 klux 7,6 C 15,2 C
11.05.2004 13:35 19,4 C 23,7 C 49 % 1016 hPa 0,0 l/m 5,8 m/s (1 Bft) W-SW22.5 240 5,00 min 107 klux 8,4 C 15,3 C
11.05.2004 13:40 19,1 C 23,8 C 47 % 1015 hPa 0,0 l/m 7,1 m/s (2 Bft) W-SW45 250 5,00 min 104 klux 7,5 C 14,1 C
11.05.2004 13:45 17,7 C 23,2 C 50 % 1016 hPa 0,0 l/m 5,9 m/s (2 Bft) W-SW45 240 0,00 min 25,9 klux 7,1 C 13,0 C
11.05.2004 13:50 18,5 C 22,7 C 51 % 1015 hPa 0,0 l/m 6,0 m/s (2 Bft) W-SW45 240 5,00 min 95,3 klux 8,2 C 14,0 C
11.05.2004 13:55 18,0 C 22,6 C 50 % 1015 hPa 0,0 l/m 6,8 m/s (2 Bft) W-SW45 255 0,00 min 45,4 klux 7,4 C 12,7 C
11.05.2004 14:00 18,0 C 22,5 C 51 % 1015 hPa 0,0 l/m 6,5 m/s (2 Bft) W22.5 265 5,00 min 98,0 klux 7,7 C 13,0 C
11.05.2004 14:05 18,6 C 22,5 C 51 % 1015 hPa 0,0 l/m 7,9 m/s (2 Bft) W45 270 5,00 min 90,7 klux 8,3 C 13,0 C
11.05.2004 14:10 18,3 C 22,9 C 49 % 1015 hPa 0,0 l/m 6,9 m/s (2 Bft) W67.5 265 5,00 min 95,5 klux 7,4 C 13,1 C
11.05.2004 14:15 18,7 C 23,6 C 47 % 1015 hPa 0,0 l/m 5,0 m/s (1 Bft) W-SW45 255 5,00 min 95,5 klux 7,2 C 15,0 C
11.05.2004 14:20 18,9 C 23,7 C 47 % 1015 hPa 0,0 l/m 6,2 m/s (2 Bft) W-SW22.5 250 5,00 min 91,5 klux 7,3 C 14,4 C
11.05.2004 14:25 19,1 C 24,1 C 46 % 1015 hPa 0,0 l/m 8,0 m/s (2 Bft) W45 265 5,00 min 91,5 klux 7,2 C 13,6 C
11.05.2004 14:30 19,6 C 24,7 C 48 % 1015 hPa 0,0 l/m 5,8 m/s (1 Bft) W22.5 260 5,00 min 101 klux 8,3 C 15,6 C
11.05.2004 14:35 19,3 C 24,9 C 44 % 1015 hPa 0,0 l/m 5,1 m/s (1 Bft) W-SW45 255 5,00 min 101 klux 6,7 C 15,6 C
11.05.2004 14:40 19,3 C 24,9 C 45 % 1015 hPa 0,0 l/m 6,1 m/s (2 Bft) W45 260 5,00 min 94,6 klux 7,1 C 14,9 C
11.05.2004 14:45 19,4 C 25,3 C 45 % 1015 hPa 0,0 l/m 4,9 m/s (1 Bft) W45 265 5,00 min 93,8 klux 7,2 C 15,9 C
11.05.2004 14:50 19,3 C 25,6 C 46 % 1015 hPa 0,0 l/m 6,2 m/s (2 Bft) W22.5 270 5,00 min 93,1 klux 7,4 C 14,9 C
11.05.2004 14:55 19,4 C 25,0 C 45 % 1015 hPa 0,0 l/m 6,3 m/s (2 Bft) W22.5 265 5,00 min 95,4 klux 7,2 C 15,0 C
11.05.2004 15:00 19,3 C 25,1 C 45 % 1015 hPa 0,0 l/m 8,9 m/s (2 Bft) W-SW67.5 255 5,00 min 91,0 klux 7,1 C 13,5 C
11.05.2004 15:05 18,9 C 24,5 C 48 % 1015 hPa 0,0 l/m 6,6 m/s (2 Bft) W-SW45 245 5,00 min 84,5 klux 7,6 C 14,1 C
11.05.2004 15:10 19,2 C 24,4 C 45 % 1015 hPa 0,0 l/m 5,8 m/s (2 Bft) W45 265 5,00 min 90,4 klux 7,0 C 15,0 C
11.05.2004 15:15 19,5 C 25,0 C 44 % 1015 hPa 0,0 l/m 5,4 m/s (1 Bft) W-SW45 245 5,00 min 90,5 klux 6,9 C 15,7 C
11.05.2004 15:20 19,1 C 25,2 C 45 % 1015 hPa 0,0 l/m 7,9 m/s (2 Bft) W-SW45 250 5,00 min 87,9 klux 6,9 C 13,7 C
11.05.2004 15:25 18,9 C 25,1 C 45 % 1015 hPa 0,0 l/m 8,6 m/s (2 Bft) W67.5 260 5,00 min 89,0 klux 6,7 C 13,0 C
11.05.2004 15:30 19,3 C 25,2 C 46 % 1015 hPa 0,0 l/m 5,9 m/s (2 Bft) W45 265 5,00 min 87,2 klux 7,4 C 15,1 C
11.05.2004 15:35 19,5 C 25,6 C 46 % 1015 hPa 0,0 l/m 5,4 m/s (1 Bft) W-SW22.5 255 5,00 min 91,2 klux 7,6 C 15,6 C
11.05.2004 15:40 19,2 C 25,6 C 43 % 1015 hPa 0,0 l/m 6,5 m/s (2 Bft) W-SW45 250 5,00 min 86,5 klux 6,3 C 14,5 C
11.05.2004 15:45 19,1 C 25,3 C 46 % 1015 hPa 0,0 l/m 8,4 m/s (2 Bft) W45 275 5,00 min 86,4 klux 7,2 C 13,4 C
11.05.2004 15:50 19,2 C 25,2 C 47 % 1015 hPa 0,0 l/m 6,8 m/s (2 Bft) W22.5 265 5,00 min 78,1 klux 7,6 C 14,4 C
11.05.2004 15:55 19,3 C 25,3 C 47 % 1015 hPa 0,0 l/m 5,0 m/s (1 Bft) W45 265 5,00 min 85,8 klux 7,7 C 15,7 C
11.05.2004 16:00 19,3 C 25,5 C 46 % 1015 hPa 0,0 l/m 5,3 m/s (1 Bft) W45 260 5,00 min 83,6 klux 7,4 C 15,5 C
11.05.2004 16:05 19,0 C 25,6 C 45 % 1015 hPa 0,0 l/m 7,8 m/s (2 Bft) W22.5 260 5,00 min 84,5 klux 6,8 C 13,6 C
11.05.2004 16:10 19,3 C 25,9 C 46 % 1015 hPa 0,0 l/m 5,3 m/s (1 Bft) W45 270 5,00 min 82,8 klux 7,4 C 15,5 C
11.05.2004 16:15 19,2 C 26,1 C 45 % 1015 hPa 0,0 l/m 7,3 m/s (2 Bft) W-SW45 245 5,00 min 85,3 klux 7,0 C 14,1 C
11.05.2004 16:20 19,1 C 26,2 C 46 % 1015 hPa 0,0 l/m 6,8 m/s (2 Bft) W-SW22.5 240 5,00 min 79,7 klux 7,2 C 14,2 C
11.05.2004 16:25 18,9 C 25,8 C 49 % 1015 hPa 0,0 l/m 8,0 m/s (2 Bft) W22.5 260 5,00 min 78,3 klux 7,9 C 13,3 C
11.05.2004 16:30 18,9 C 25,8 C 49 % 1015 hPa 0,0 l/m 7,6 m/s (2 Bft) W-SW45 250 5,00 min 77,1 klux 7,9 C 13,5 C
11.05.2004 16:35 19,0 C 25,8 C 48 % 1015 hPa 0,0 l/m 7,0 m/s (2 Bft) W45 280 5,00 min 76,8 klux 7,7 C 14,0 C
11.05.2004 16:40 18,8 C 25,7 C 48 % 1015 hPa 0,0 l/m 7,7 m/s (2 Bft) W22.5 260 5,00 min 73,5 klux 7,6 C 13,4 C
11.05.2004 16:45 18,5 C 25,6 C 50 % 1015 hPa 0,0 l/m 9,8 m/s (2 Bft) W-SW22.5 255 5,00 min 72,6 klux 7,9 C 12,0 C
11.05.2004 16:50 18,5 C 25,4 C 51 % 1015 hPa 0,0 l/m 7,0 m/s (2 Bft) W45 260 5,00 min 72,7 klux 8,2 C 13,3 C
11.05.2004 16:55 18,0 C 25,0 C 51 % 1015 hPa 0,0 l/m 10,0 m/s (2 Bft) W-SW45 255 5,00 min 69,1 klux 7,7 C 11,2 C
11.05.2004 17:00 17,4 C 24,5 C 53 % 1015 hPa 0,0 l/m 7,6 m/s (2 Bft) W-SW22.5 255 5,00 min 65,0 klux 7,7 C 11,5 C
11.05.2004 17:05 17,7 C 23,8 C 54 % 1015 hPa 0,0 l/m 9,3 m/s (2 Bft) W45 265 5,00 min 66,0 klux 8,3 C 11,0 C
11.05.2004 17:10 17,6 C 23,9 C 54 % 1015 hPa 0,0 l/m 8,8 m/s (2 Bft) W22.5 270 5,00 min 66,0 klux 8,2 C 11,1 C
11.05.2004 17:15 17,0 C 23,5 C 55 % 1015 hPa 0,0 l/m 12,2 m/s (2 Bft) W45 275 5,00 min 65,2 klux 7,9 C 8,9 C
11.05.2004 17:20 16,5 C 22,8 C 57 % 1015 hPa 0,0 l/m 7,9 m/s (2 Bft) W45 265 5,00 min 62,7 klux 8,0 C 10,0 C
11.05.2004 17:25 16,8 C 22,7 C 57 % 1015 hPa 0,0 l/m 7,1 m/s (2 Bft) W45 280 5,00 min 57,5 klux 8,2 C 10,9 C
11.05.2004 17:30 16,4 C 22,7 C 57 % 1015 hPa 0,0 l/m 8,2 m/s (2 Bft) W45 265 5,00 min 41,9 klux 7,9 C 9,7 C
11.05.2004 17:35 15,4 C 20,9 C 58 % 1016 hPa 0,0 l/m 7,8 m/s (2 Bft) W45 275 0,00 min 26,8 klux 7,2 C 8,6 C
11.05.2004 17:40 15,7 C 20,9 C 60 % 1016 hPa 0,0 l/m 9,1 m/s (2 Bft) W67.5 280 0,00 min 23,0 klux 8,0 C 8,3 C
11.05.2004 17:45 15,2 C 19,1 C 61 % 1016 hPa 0,0 l/m 9,3 m/s (2 Bft) W-NW67.5 290 0,00 min 23,1 klux 7,7 C 7,4 C
11.05.2004 17:50 14,9 C 18,3 C 62 % 1016 hPa 0,0 l/m 7,6 m/s (2 Bft) W-NW45 285 0,00 min 19,5 klux 7,7 C 8,0 C
11.05.2004 17:55 14,6 C 17,6 C 63 % 1016 hPa 0,0 l/m 7,3 m/s (2 Bft) W22.5 265 0,00 min 13,9 klux 7,6 C 7,8 C
11.05.2004 18:00 14,7 C 17,3 C 64 % 1016 hPa 0,0 l/m 6,5 m/s (2 Bft) W45 280 0,00 min 11,9 klux 8,0 C 8,5 C
11.05.2004 18:05 14,4 C 17,0 C 64 % 1016 hPa 0,0 l/m 4,7 m/s (1 Bft) W67.5 265 0,00 min 13,6 klux 7,7 C 9,9 C
11.05.2004 18:10 14,3 C 16,6 C 63 % 1016 hPa 0,0 l/m 5,3 m/s (1 Bft) W45 270 0,00 min 14,4 klux 7,4 C 9,1 C
11.05.2004 18:15 14,5 C 16,5 C 63 % 1016 hPa 0,0 l/m 2,9 m/s (1 Bft) W45 275 0,00 min 14,0 klux 7,5 C 12,3 C
11.05.2004 18:20 14,4 C 16,3 C 63 % 1016 hPa 0,0 l/m 5,3 m/s (1 Bft) W67.5 275 0,00 min 11,4 klux 7,4 C 9,2 C
11.05.2004 18:25 14,3 C 16,0 C 64 % 1016 hPa 0,0 l/m 5,4 m/s (1 Bft) W-SW45 250 0,00 min 11,6 klux 7,6 C 9,0 C
11.05.2004 18:30 14,0 C 16,0 C 64 % 1016 hPa 0,0 l/m 5,6 m/s (1 Bft) W-SW22.5 255 0,00 min 13,2 klux 7,3 C 8,4 C
11.05.2004 18:35 13,9 C 15,7 C 65 % 1016 hPa 0,0 l/m 5,8 m/s (2 Bft) W-SW45 255 0,00 min 11,6 klux 7,4 C 8,1 C
11.05.2004 18:40 14,0 C 15,5 C 66 % 1016 hPa 0,0 l/m 3,4 m/s (1 Bft) W-SW45 255 0,00 min 13,1 klux 7,7 C 11,0 C
11.05.2004 18:45 13,7 C 15,4 C 65 % 1016 hPa 0,0 l/m 5,9 m/s (2 Bft) W45 270 0,00 min 13,1 klux 7,2 C 7,7 C
11.05.2004 18:50 13,8 C 15,3 C 65 % 1016 hPa 0,0 l/m 7,5 m/s (2 Bft) W45 260 0,00 min 13,1 klux 7,3 C 6,5 C
11.05.2004 18:55 13,7 C 15,1 C 65 % 1016 hPa 0,0 l/m 6,5 m/s (2 Bft) W-NW45 295 0,00 min 12,8 klux 7,2 C 7,2 C
11.05.2004 19:00 13,8 C 15,0 C 65 % 1016 hPa 0,0 l/m 8,6 m/s (2 Bft) W45 280 0,00 min 12,8 klux 7,3 C 5,9 C
11.05.2004 19:05 13,7 C 15,0 C 66 % 1016 hPa 0,0 l/m 5,3 m/s (1 Bft) W22.5 275 0,00 min 10,6 klux 7,5 C 8,3 C
11.05.2004 19:10 13,6 C 14,8 C 66 % 1016 hPa 0,0 l/m 6,2 m/s (2 Bft) W-SW67.5 255 0,00 min 7,90 klux 7,4 C 7,3 C
11.05.2004 19:15 13,5 C 14,8 C 65 % 1016 hPa 0,0 l/m 4,8 m/s (1 Bft) W45 270 0,00 min 7,82 klux 7,1 C 8,6 C
11.05.2004 19:20 13,4 C 14,6 C 65 % 1016 hPa 0,0 l/m 6,9 m/s (2 Bft) W45 260 0,00 min 6,97 klux 7,0 C 6,5 C
11.05.2004 19:25 13,3 C 14,6 C 65 % 1016 hPa 0,0 l/m 6,2 m/s (2 Bft) W22.5 260 0,00 min 6,51 klux 6,9 C 7,0 C
11.05.2004 19:30 13,4 C 14,5 C 66 % 1016 hPa 0,0 l/m 5,9 m/s (2 Bft) W-NW45 290 0,00 min 6,79 klux 7,2 C 7,4 C
11.05.2004 19:35 13,3 C 14,3 C 66 % 1016 hPa 0,0 l/m 2,8 m/s (1 Bft) W-NW45 290 0,00 min 5,64 klux 7,1 C 11,2 C
11.05.2004 19:40 13,3 C 14,3 C 65 % 1016 hPa 0,0 l/m 4,0 m/s (1 Bft) W22.5 275 0,00 min 5,51 klux 6,9 C 9,4 C
11.05.2004 19:45 13,4 C 14,2 C 65 % 1016 hPa 0,0 l/m 4,1 m/s (1 Bft) W-SW45 250 0,00 min 5,36 klux 7,0 C 9,3 C
11.05.2004 19:50 13,3 C 14,2 C 64 % 1016 hPa 0,0 l/m 3,1 m/s (1 Bft) W-SW22.5 255 0,00 min 4,22 klux 6,6 C 10,7 C
11.05.2004 19:55 13,4 C 14,2 C 64 % 1016 hPa 0,0 l/m 3,9 m/s (1 Bft) W45 270 0,00 min 3,42 klux 6,7 C 9,6 C
11.05.2004 20:00 13,3 C 14,1 C 64 % 1016 hPa 0,0 l/m 2,4 m/s (1 Bft) W-SW22.5 250 0,00 min 2,55 klux 6,6 C 11,9 C
11.05.2004 20:05 13,3 C 14,1 C 65 % 1017 hPa 0,0 l/m 1,3 m/s (1 Bft) W-SW45 240 0,00 min 2,04 klux 6,9 C 13,3 C
11.05.2004 20:10 13,3 C 14,0 C 65 % 1017 hPa 0,0 l/m 1,4 m/s (1 Bft) W22.5 260 0,00 min 1,53 klux 6,9 C 13,3 C
11.05.2004 20:15 13,3 C 14,0 C 65 % 1017 hPa 0,0 l/m 1,3 m/s (1 Bft) W22.5 270 0,00 min 1,19 klux 6,9 C 13,3 C
11.05.2004 20:20 13,1 C 14,0 C 66 % 1017 hPa 0,0 l/m 3,3 m/s (1 Bft) W22.5 275 0,00 min 838 lux 6,9 C 10,1 C
11.05.2004 20:25 13,1 C 13,9 C 66 % 1017 hPa 0,0 l/m 2,6 m/s (1 Bft) W22.5 260 0,00 min 632 lux 6,9 C 11,3 C
11.05.2004 20:30 13,0 C 13,9 C 67 % 1017 hPa 0,0 l/m 3,1 m/s (1 Bft) W-NW22.5 290 0,00 min 570 lux 7,0 C 10,4 C
11.05.2004 20:35 13,0 C 13,8 C 68 % 1017 hPa 0,0 l/m 3,2 m/s (1 Bft) W22.5 270 0,00 min 528 lux 7,2 C 10,2 C
11.05.2004 20:40 12,9 C 13,7 C 69 % 1017 hPa 0,0 l/m 1,6 m/s (1 Bft) W22.5 270 0,00 min 471 lux 7,4 C 12,9 C
11.05.2004 20:45 12,9 C 13,6 C 69 % 1017 hPa 0,0 l/m 1,9 m/s (1 Bft) W-NW22.5 285 0,00 min 400 lux 7,4 C 12,7 C
11.05.2004 20:50 12,9 C 13,6 C 69 % 1017 hPa 0,0 l/m 2,3 m/s (1 Bft) W22.5 265 0,00 min 317 lux 7,4 C 11,7 C
11.05.2004 20:55 12,9 C 13,6 C 69 % 1017 hPa 0,0 l/m 1,6 m/s (1 Bft) W-NW45 290 0,00 min 273 lux 7,4 C 12,9 C
11.05.2004 21:00 12,8 C 13,5 C 69 % 1017 hPa 0,0 l/m 2,4 m/s (1 Bft) W45 260 0,00 min 237 lux 7,3 C 11,4 C
11.05.2004 21:05 12,7 C 13,5 C 69 % 1017 hPa 0,0 l/m 2,4 m/s (1 Bft) W22.5 265 0,00 min 158 lux 7,2 C 11,3 C
11.05.2004 21:10 12,7 C 13,4 C 70 % 1017 hPa 0,0 l/m 2,1 m/s (1 Bft) W22.5 265 0,00 min 110 lux 7,4 C 11,9 C
11.05.2004 21:15 12,7 C 13,4 C 70 % 1017 hPa 0,0 l/m 1,6 m/s (1 Bft) W-SW22.5 255 0,00 min 72 lux 7,4 C 12,7 C
11.05.2004 21:20 12,6 C 13,4 C 71 % 1017 hPa 0,0 l/m 2,3 m/s (1 Bft) W-SW22.5 250 0,00 min 37 lux 7,5 C 11,4 C
11.05.2004 21:25 12,5 C 13,3 C 72 % 1017 hPa 0,0 l/m 3,7 m/s (1 Bft) W-SW22.5 250 0,00 min 23 lux 7,6 C 8,8 C
11.05.2004 21:30 12,4 C 13,3 C 72 % 1017 hPa 0,0 l/m 2,7 m/s (1 Bft) W-SW45 255 0,00 min 19 lux 7,5 C 10,4 C
11.05.2004 21:35 12,4 C 13,2 C 72 % 1017 hPa 0,0 l/m 3,1 m/s (1 Bft) W22.5 275 0,00 min 12 lux 7,5 C 9,7 C
11.05.2004 21:40 12,3 C 13,1 C 72 % 1017 hPa 0,0 l/m 2,1 m/s (1 Bft) W-SW22.5 255 0,00 min 9 lux 7,4 C 11,6 C
11.05.2004 21:45 12,2 C 13,1 C 72 % 1017 hPa 0,0 l/m 2,9 m/s (1 Bft) W-SW22.5 255 0,00 min 8 lux 7,3 C 9,9 C
11.05.2004 21:50 12,2 C 13,0 C 71 % 1017 hPa 0,0 l/m 2,9 m/s (1 Bft) W45 275 0,00 min 5 lux 7,1 C 9,8 C
11.05.2004 21:55 12,1 C 12,9 C 71 % 1017 hPa 0,0 l/m 2,8 m/s (1 Bft) W22.5 275 0,00 min 2 lux 7,0 C 9,9 C
11.05.2004 22:00 12,0 C 12,9 C 71 % 1017 hPa 0,0 l/m 2,4 m/s (1 Bft) W45 280 0,00 min 1 lux 6,9 C 10,6 C
11.05.2004 22:05 12,0 C 12,8 C 71 % 1017 hPa 0,0 l/m 4,1 m/s (1 Bft) W45 275 0,00 min 0 lux 6,9 C 7,6 C
11.05.2004 22:10 12,0 C 12,7 C 72 % 1017 hPa 0,0 l/m 1,9 m/s (1 Bft) W22.5 280 0,00 min 0 lux 7,1 C 11,6 C
11.05.2004 22:15 11,9 C 12,7 C 73 % 1017 hPa 0,0 l/m 1,5 m/s (1 Bft) W22.5 275 0,00 min 0 lux 7,2 C 11,9 C
11.05.2004 22:20 11,8 C 12,6 C 72 % 1017 hPa 0,0 l/m 2,6 m/s (1 Bft) W22.5 265 0,00 min 0 lux 6,9 C 10,0 C
11.05.2004 22:25 11,4 C 12,6 C 73 % 1017 hPa 0,0 l/m 2,3 m/s (1 Bft) W22.5 265 0,00 min 0 lux 6,7 C 10,3 C
11.05.2004 22:30 11,1 C 12,4 C 74 % 1017 hPa 0,0 l/m 3,0 m/s (1 Bft) W22.5 265 0,00 min 0 lux 6,6 C 8,4 C
11.05.2004 22:35 11,0 C 12,1 C 74 % 1017 hPa 0,0 l/m 1,9 m/s (1 Bft) W22.5 270 0,00 min 0 lux 6,5 C 10,7 C
11.05.2004 22:40 10,5 C 11,9 C 76 % 1017 hPa 0,0 l/m 0,9 m/s (0 Bft) W22.5 280 0,00 min 0 lux 6,5 C 10,5 C
11.05.2004 22:45 10,4 C 11,8 C 77 % 1017 hPa 0,0 l/m 2,3 m/s (1 Bft) W22.5 275 0,00 min 0 lux 6,5 C 9,1 C
11.05.2004 22:50 10,2 C 11,7 C 78 % 1017 hPa 0,0 l/m 2,5 m/s (1 Bft) W-NW22.5 290 0,00 min 0 lux 6,5 C 8,4 C
11.05.2004 22:55 10,0 C 11,5 C 78 % 1017 hPa 0,0 l/m 0,0 m/s (0 Bft) W 260 0,00 min 0 lux 6,3 C 10,0 C
11.05.2004 23:00 9,6 C 11,3 C 80 % 1017 hPa 0,0 l/m 0,0 m/s (0 Bft) W 260 0,00 min 0 lux 6,3 C 9,6 C
11.05.2004 23:05 9,6 C 11,2 C 81 % 1017 hPa 0,0 l/m 0,0 m/s (0 Bft) W 260 0,00 min 0 lux 6,5 C 9,6 C
11.05.2004 23:10 9,6 C 11,0 C 81 % 1017 hPa 0,0 l/m 0,0 m/s (0 Bft) W 260 0,00 min 0 lux 6,5 C 9,6 C
11.05.2004 23:15 9,6 C 10,9 C 82 % 1017 hPa 0,0 l/m 0,6 m/s (0 Bft) W45 275 0,00 min 0 lux 6,7 C 9,6 C
11.05.2004 23:20 9,8 C 10,8 C 81 % 1017 hPa 0,0 l/m 3,7 m/s (1 Bft) W22.5 265 0,00 min 0 lux 6,7 C 5,6 C
11.05.2004 23:25 9,8 C 10,7 C 81 % 1017 hPa 0,0 l/m 2,8 m/s (1 Bft) W-SW22.5 250 0,00 min 0 lux 6,7 C 7,4 C
11.05.2004 23:30 9,8 C 10,6 C 80 % 1017 hPa 0,0 l/m 1,8 m/s (1 Bft) W22.5 260 0,00 min 0 lux 6,5 C 9,7 C
11.05.2004 23:35 9,6 C 10,5 C 80 % 1017 hPa 0,0 l/m 1,7 m/s (1 Bft) W-SW 255 0,00 min 0 lux 6,3 C 9,6 C
11.05.2004 23:40 9,5 C 10,4 C 80 % 1017 hPa 0,0 l/m 1,7 m/s (1 Bft) W22.5 265 0,00 min 0 lux 6,2 C 9,5 C
11.05.2004 23:45 9,6 C 10,3 C 80 % 1017 hPa 0,0 l/m 1,9 m/s (1 Bft) W-SW22.5 255 0,00 min 0 lux 6,3 C 9,2 C
11.05.2004 23:50 9,0 C 10,2 C 80 % 1017 hPa 0,0 l/m 0,8 m/s (0 Bft) W22.5 275 0,00 min 0 lux 5,7 C 9,0 C
11.05.2004 23:55 8,7 C 10,1 C 82 % 1017 hPa 0,0 l/m 1,3 m/s (1 Bft) W22.5 275 0,00 min 0 lux 5,8 C 8,7 C
_ Min-Zeit 02:20 06:20 15:40 00:00 - 00:25 - - - - 02:20 09:00
Minimum _ 4,9 C 6,2 C 43 % 1014 hPa - 0,0 m/s (0 Bft) - - - - 4,2 C 4,8 C
_ Max-Zeit 14:30 16:20 02:20 20:05 06:35 17:15 - - 09:00 12:25 10:40 12:50
Maximum _ 19,6 C 26,2 C 95 % 1017 hPa 0,4 l/m 12,2 m/s
W (6 Bft)
- - 5,00 min 110 klux 9,4 C 17,0 C
Durchschnitt _ 11,9 C 13,8 C 74 % 1016 hPa #0,4 l/m 3,1 m/s (2 Bft) W - #7:10 h 29,2 klux 6,8 C 9,5 C